TimeEST,TemperatureF,Dew PointF,Humidity,Sea Level PressureIn,VisibilityMPH,Wind Direction,Wind SpeedMPH,Gust SpeedMPH,PrecipitationIn,Events,Conditions,WindDirDegrees,DateUTC
12:15 AM,30.0,22.5,73,30.09,10.0,Calm,Calm,-,N/A,,Clear,0,2014-02-17 05:15:00
12:35 AM,29.5,21.7,73,30.09,10.0,NNW,3.5,-,N/A,,Clear,340,2014-02-17 05:35:00
12:55 AM,29.3,21.0,71,30.10,10.0,WSW,3.5,-,N/A,,Clear,250,2014-02-17 05:55:00
1:15 AM,30.4,20.1,66,30.10,10.0,West,3.5,-,N/A,,Clear,260,2014-02-17 06:15:00
1:35 AM,30.2,20.3,67,30.10,10.0,Calm,Calm,-,N/A,,Clear,0,2014-02-17 06:35:00
1:55 AM,30.0,20.8,69,30.11,10.0,West,5.8,-,N/A,,Clear,260,2014-02-17 06:55:00
2:15 AM,30.0,20.3,67,30.11,10.0,West,12.7,19.6,N/A,,Clear,270,2014-02-17 07:15:00
2:35 AM,29.8,21.6,71,30.11,10.0,West,12.7,-,N/A,,Clear,280,2014-02-17 07:35:00
2:55 AM,30.2,21.6,70,30.11,10.0,WNW,12.7,18.4,N/A,,Clear,290,2014-02-17 07:55:00
3:15 AM,29.1,20.7,71,30.11,10.0,NW,8.1,-,N/A,,Clear,310,2014-02-17 08:15:00
3:35 AM,26.4,20.7,79,30.12,10.0,North,4.6,-,N/A,,Clear,350,2014-02-17 08:35:00
3:55 AM,26.4,20.8,79,30.12,10.0,North,4.6,-,N/A,,Clear,350,2014-02-17 08:55:00
4:15 AM,26.6,20.7,78,30.13,10.0,NNW,4.6,-,N/A,,Clear,340,2014-02-17 09:15:00
4:35 AM,29.8,16.5,58,30.13,10.0,NW,3.5,-,N/A,,Clear,320,2014-02-17 09:35:00
4:55 AM,28.0,15.3,59,30.13,10.0,Calm,Calm,-,N/A,,Clear,0,2014-02-17 09:55:00
5:15 AM,26.2,19.6,76,30.14,10.0,SE,3.5,-,N/A,,Clear,130,2014-02-17 10:15:00
5:35 AM,25.3,20.1,81,30.15,10.0,East,3.5,-,N/A,,Clear,100,2014-02-17 10:35:00
5:55 AM,25.2,19.8,80,30.16,10.0,Calm,Calm,-,N/A,,Clear,0,2014-02-17 10:55:00
6:15 AM,25.2,20.1,81,30.16,10.0,Calm,Calm,-,N/A,,Clear,0,2014-02-17 11:15:00
6:35 AM,25.7,20.3,80,30.16,10.0,Calm,Calm,-,N/A,,Clear,0,2014-02-17 11:35:00
6:55 AM,25.7,20.3,80,30.16,10.0,Calm,Calm,-,N/A,,Clear,0,2014-02-17 11:55:00
7:15 AM,25.3,20.5,82,30.18,10.0,Calm,Calm,-,N/A,,Clear,0,2014-02-17 12:15:00
7:35 AM,26.1,20.3,79,30.18,10.0,Calm,Calm,-,N/A,,Clear,0,2014-02-17 12:35:00
7:55 AM,26.6,19.8,75,30.18,10.0,Calm,Calm,-,N/A,,Clear,0,2014-02-17 12:55:00
8:15 AM,26.6,20.3,77,30.20,10.0,Calm,Calm,-,N/A,,Scattered Clouds,0,2014-02-17 13:15:00
8:35 AM,27.1,20.3,75,30.20,10.0,Calm,Calm,-,N/A,,Scattered Clouds,0,2014-02-17 13:35:00
8:55 AM,27.5,20.3,74,30.20,10.0,SSE,3.5,-,N/A,,Scattered Clouds,150,2014-02-17 13:55:00
9:15 AM,27.7,20.7,75,30.20,10.0,Calm,Calm,-,N/A,,Mostly Cloudy,0,2014-02-17 14:15:00
9:35 AM,28.4,20.8,73,30.20,10.0,SSE,4.6,-,N/A,,Scattered Clouds,160,2014-02-17 14:35:00
9:55 AM,29.8,21.4,71,30.20,10.0,Calm,Calm,-,N/A,,Clear,0,2014-02-17 14:55:00
10:15 AM,30.9,21.4,68,30.20,10.0,SSE,3.5,-,N/A,,Clear,150,2014-02-17 15:15:00
10:35 AM,32.0,21.4,65,30.19,10.0,SSE,5.8,-,N/A,,Clear,160,2014-02-17 15:35:00
10:55 AM,32.0,21.2,64,30.20,10.0,SE,4.6,-,N/A,,Scattered Clouds,140,2014-02-17 15:55:00
11:15 AM,33.1,21.6,63,30.20,10.0,SSE,8.1,-,N/A,,Scattered Clouds,150,2014-02-17 16:15:00
11:40 AM,33.4,21.4,61,30.20,10.0,SSE,5.8,-,N/A,,Scattered Clouds,150,2014-02-17 16:40:00
11:55 AM,34.7,21.7,59,30.18,10.0,SSE,5.8,-,N/A,,Mostly Cloudy,150,2014-02-17 16:55:00
12:15 PM,34.0,21.4,60,30.18,10.0,SSE,4.6,-,N/A,,Scattered Clouds,150,2014-02-17 17:15:00
12:35 PM,34.5,21.2,58,30.17,10.0,SE,8.1,-,N/A,,Scattered Clouds,130,2014-02-17 17:35:00
12:55 PM,33.4,20.7,59,30.16,10.0,SE,8.1,-,N/A,,Scattered Clouds,140,2014-02-17 17:55:00
1:15 PM,34.0,20.7,58,30.15,10.0,SE,10.4,-,N/A,,Mostly Cloudy,130,2014-02-17 18:15:00
1:35 PM,34.9,21.2,57,30.14,10.0,SE,6.9,-,N/A,,Scattered Clouds,140,2014-02-17 18:35:00
1:55 PM,36.1,21.9,56,30.13,10.0,SSE,6.9,-,N/A,,Clear,160,2014-02-17 18:55:00
2:15 PM,36.0,21.2,55,30.11,10.0,SE,4.6,-,N/A,,Clear,140,2014-02-17 19:15:00
2:35 PM,36.5,21.7,55,30.11,10.0,SSE,8.1,-,N/A,,Clear,160,2014-02-17 19:35:00
2:55 PM,36.9,22.3,56,30.11,10.0,SSE,6.9,-,N/A,,Scattered Clouds,150,2014-02-17 19:55:00
3:15 PM,37.2,23.0,56,30.11,10.0,SSE,6.9,-,N/A,,Clear,160,2014-02-17 20:15:00
3:35 PM,37.4,23.4,57,30.11,10.0,SSE,8.1,-,N/A,,Clear,160,2014-02-17 20:35:00
4:00 PM,36.9,22.5,56,30.10,10.0,South,6.9,19.6,N/A,,Clear,170,2014-02-17 21:00:00
4:15 PM,37.0,22.3,55,30.10,10.0,SSE,8.1,-,N/A,,Clear,150,2014-02-17 21:15:00
4:35 PM,35.6,21.0,55,30.10,10.0,SE,6.9,-,N/A,,Clear,140,2014-02-17 21:35:00
4:55 PM,35.6,22.3,58,30.10,10.0,SE,5.8,-,N/A,,Clear,140,2014-02-17 21:55:00
5:15 PM,34.9,21.6,58,30.10,10.0,SE,8.1,-,N/A,,Clear,130,2014-02-17 22:15:00
5:35 PM,34.3,21.2,59,30.09,10.0,SSE,6.9,17.3,N/A,,Clear,150,2014-02-17 22:35:00
5:55 PM,32.9,21.0,62,30.10,10.0,SSE,3.5,-,N/A,,Clear,150,2014-02-17 22:55:00
6:15 PM,32.4,21.0,63,30.11,10.0,Calm,Calm,-,N/A,,Clear,0,2014-02-17 23:15:00
6:35 PM,32.0,21.0,64,30.12,10.0,SSE,3.5,-,N/A,,Scattered Clouds,150,2014-02-17 23:35:00
6:55 PM,32.0,21.2,64,30.09,10.0,SE,6.9,-,N/A,,Mostly Cloudy,140,2014-02-17 23:55:00
7:15 PM,32.0,21.7,66,30.11,10.0,SSE,4.6,-,N/A,,Overcast,160,2014-02-18 00:15:00
7:35 PM,32.0,21.4,65,30.12,10.0,SSE,3.5,-,N/A,,Overcast,160,2014-02-18 00:35:00
7:55 PM,32.0,21.7,66,30.11,10.0,SE,3.5,-,N/A,,Overcast,140,2014-02-18 00:55:00
8:15 PM,32.0,21.6,65,30.10,10.0,SE,4.6,-,N/A,,Overcast,140,2014-02-18 01:15:00
8:35 PM,32.0,22.1,67,30.10,7.0,SSE,4.6,-,N/A,Snow,Light Snow,160,2014-02-18 01:35:00
8:55 PM,31.8,22.5,68,30.10,10.0,SSE,3.5,-,N/A,,Overcast,150,2014-02-18 01:55:00
9:15 PM,31.5,22.8,70,30.09,5.0,SSE,6.9,-,N/A,Snow,Light Snow,160,2014-02-18 02:15:00
9:35 PM,31.1,23.4,73,30.08,7.0,SSE,5.8,-,N/A,Snow,Light Snow,150,2014-02-18 02:35:00
9:55 PM,31.1,23.2,72,30.08,10.0,SSE,5.8,-,N/A,Snow,Light Snow,160,2014-02-18 02:55:00
10:15 PM,30.9,23.2,73,30.09,7.0,SE,4.6,-,N/A,Snow,Light Snow,140,2014-02-18 03:15:00
10:35 PM,30.7,24.3,77,30.09,3.0,Calm,Calm,-,N/A,Snow,Light Snow,0,2014-02-18 03:35:00
10:55 PM,30.2,25.9,84,30.11,2.5,Calm,Calm,-,N/A,Snow,Light Snow,0,2014-02-18 03:55:00
11:15 PM,30.0,28.2,93,30.11,0.8,South,4.6,-,0.01,Snow,Snow,170,2014-02-18 04:15:00
11:40 PM,30.2,29.1,96,30.09,4.0,SSE,3.5,-,0.01,Snow,Light Snow,160,2014-02-18 04:40:00